Weather History for CYWG - February, 2013

Change the Weather History Date:

Friday, February 22, 2013

  Actual Average Record
Temperature  
Mean Temperature 10 °F -  
Max Temperature 21 °F 18 °F 39 °F (2002)
Min Temperature 0 °F 3 °F -27 °F (2015)
Degree Days  
Heating Degree Days 54    
Moisture  
Dew Point 3 °F    
Average Humidity 71    
Maximum Humidity 79    
Minimum Humidity 51    
Precipitation  
Precipitation 0.00 in - - ()
Sea Level Pressure  
Sea Level Pressure 30.15 in    
Wind  
Wind Speed 5 mph ()    
Max Wind Speed 9 mph    
Max Gust Speed -    
Visibility 14.1 miles    
Events      
Averages and records for this station are not official NWS values.
T = Trace of Precipitation, MM = Missing Value Source: Averaged Metar Reports

Daily Weather History Graph

Daily Weather History Graph

Search for Another Location

Airport or City:

Trip Planner

Search our weather history database for the weather conditions in past years. The results will help you decide how hot, cold, wet, or windy it might be!

Date:

Astronomy

Feb. 22, 2013 Rise Set
Actual Time 7:25 AM CST 6:00 PM CST
Civil Twilight 6:52 AM CST 6:32 PM CST
Nautical Twilight 6:15 AM CST 7:10 PM CST
Astronomical Twilight 5:38 AM CST 7:47 PM CST
Moon 3:01 PM CST (2/22) 5:23 AM CST (2/22)
Length of Visible Light 11h 40m
Length of Day
10h 34m
Waxing Gibbous, 90% of the Moon is Illuminated
Feb 22
Waxing Gibbous
Feb 25
Full
Mar 4
Last Quarter
Mar 11
New
Mar 19
First Quarter

Hourly Weather History & Observations

Time (CST) Temp. Windchill Dew Point Humidity Pressure Visibility Wind Dir Wind Speed Gust Speed Precip Events Conditions
12:00 AM 10 °F - 0 °F 51% 30.31 in 9 mi Calm Calm - -  
12:00 AM 10.4 °F -1.5 °F -0.4 °F 62% 30.31 in 15.0 mi SE 8.1 mph - N/A   Mostly Cloudy
1:00 AM 10.4 °F -2.4 °F 1.4 °F 67% 30.29 in 15.0 mi SE 9.2 mph - N/A   Mostly Cloudy
2:00 AM 10.4 °F -2.4 °F -0.4 °F 62% 30.27 in 15.0 mi SE 9.2 mph - N/A   Mostly Cloudy
3:00 AM 6.8 °F -2.0 °F -2.2 °F 67% 30.26 in 15.0 mi SE 4.6 mph - N/A   Mostly Cloudy
4:00 AM 6.8 °F -3.5 °F -2.2 °F 67% 30.25 in 15.0 mi ESE 5.8 mph - N/A   Mostly Cloudy
5:00 AM 3.2 °F -10.3 °F -2.2 °F 78% 30.24 in 15.0 mi East 8.1 mph - N/A   Mostly Cloudy
6:00 AM 1 °F - -7 °F 54% 30.23 in 9 mi Calm Calm - -  
6:00 AM 3.2 °F - -4.0 °F 72% 30.23 in 15.0 mi ENE 2.3 mph - N/A   Mostly Cloudy
7:00 AM 1.4 °F -6.2 °F -4.0 °F 78% 30.22 in 15.0 mi NNE 3.5 mph - N/A   Scattered Clouds
8:00 AM 1.4 °F -9.9 °F -4.0 °F 78% 30.21 in 15.0 mi ENE 5.8 mph - N/A   Overcast
9:00 AM 5.0 °F -6.9 °F -0.4 °F 78% 30.18 in 15.0 mi ENE 6.9 mph - N/A   Overcast
10:00 AM 8.6 °F -2.6 °F 3.2 °F 79% 30.16 in 15.0 mi East 6.9 mph - N/A   Overcast
11:00 AM 12.2 °F 4.3 °F 5.0 °F 73% 30.15 in 15.0 mi ESE 4.6 mph - N/A   Overcast
12:00 PM 16 °F - 8 °F 59% 30.13 in 9 mi Calm Calm - -  
12:00 PM 15.8 °F 7.2 °F 5.0 °F 62% 30.13 in 15.0 mi East 5.8 mph - N/A   Mostly Cloudy
1:00 PM 17.6 °F - 6.8 °F 63% 30.10 in 15.0 mi South 2.3 mph - N/A   Mostly Cloudy
2:00 PM 17.6 °F 9.3 °F 8.6 °F 68% 30.08 in 15.0 mi WNW 5.8 mph - N/A   Overcast
3:00 PM 15.8 °F 5.1 °F 8.6 °F 73% 30.07 in 15.0 mi WNW 8.1 mph - N/A   Overcast
4:00 PM 14.0 °F 6.5 °F 6.8 °F 73% 30.06 in 15.0 mi NW 4.6 mph - N/A   Overcast
5:00 PM 12.2 °F 2.9 °F 6.8 °F 79% 30.06 in 15.0 mi NW 5.8 mph - N/A   Mostly Cloudy
6:00 PM 11 °F - 7 °F 77% 30.04 in 9 mi Calm Calm - -  
6:00 PM 12.2 °F 6.1 °F 6.8 °F 79% 30.04 in 15.0 mi North 3.5 mph - N/A   Overcast
7:00 PM 10.4 °F - 5.0 °F 79% 30.04 in 15.0 mi NNW 2.3 mph - N/A   Mostly Cloudy
8:00 PM 12.2 °F 6.1 °F 5.0 °F 73% 30.03 in 15.0 mi NE 3.5 mph - N/A   Mostly Cloudy
9:00 PM 10.4 °F 4.0 °F 5.0 °F 79% 30.01 in 15.0 mi ESE 3.5 mph - N/A   Scattered Clouds
10:00 PM 10.4 °F 2.2 °F 5.0 °F 79% 30.01 in 15.0 mi ESE 4.6 mph - N/A   Mostly Cloudy
11:00 PM 12.2 °F 4.3 °F 6.8 °F 79% 29.99 in 15.0 mi SSE 4.6 mph - N/A   Mostly Cloudy